QPF
0.01 0.01 0.01 0.02 0.01 0.02 0.03 0.04 0.03 0.03 0.02 0.01 0.01 0.01 0.01 0.02 0.02 0.03 0.03 0.03 0.05 0.07 0.10 0.10 0.09 0.06 0.06 0.07 0.08 0.09 0.09 0.10 0.10 0.09 0.06 0.05 0.05 0.06 0.07 0.06 0.04 0.04 0.05
0.00 0.01 0.01 0.01 0.02 0.02 0.02 0.03 0.03 0.02 0.02 0.04 0.02 0.02 0.01 0.02 0.02 0.03 0.03 0.03 0.05 0.09 0.10 0.10 0.08 0.06 0.06 0.06 0.06 0.08 0.07 0.07 0.09 0.08 0.07 0.08 0.06 0.05 0.06 0.05 0.04 0.06 0.06
0.00 0.00 0.01 0.01 0.01 0.01 0.02 0.03 0.03 0.02 0.03 0.03 0.02 0.02 0.02 0.02 0.03 0.03 0.04 0.05 0.05 0.09 0.10 0.10 0.07 0.06 0.06 0.06 0.06 0.05 0.05 0.06 0.06 0.07 0.06 0.04 0.04 0.03 0.04 0.04 0.03 0.05 0.06
0.00 0.00 0.01 0.01 0.00 0.01 0.01 0.02 0.02 0.03 0.03 0.04 0.04 0.04 0.03 0.04 0.05 0.04 0.05 0.06 0.07 0.08 0.07 0.08 0.06 0.05 0.05 0.04 0.05 0.06 0.07 0.06 0.07 0.07 0.05 0.04 0.03 0.03 0.04 0.04 0.04 0.04 0.04
0.00 0.00 0.01 0.01 0.00 0.00 0.01 0.01 0.02 0.04 0.03 0.04 0.04 0.04 0.04 0.05 0.06 0.06 0.05 0.05 0.08 0.12 0.10 0.07 0.05 0.04 0.04 0.04 0.05 0.05 0.07 0.07 0.08 0.08 0.05 0.05 0.05 0.05 0.05 0.05 0.06 0.05 0.07
0.00 0.00 0.01 0.01 0.01 0.01 0.02 0.03 0.04 0.04 0.03 0.03 0.02 0.03 0.04 0.04 0.04 0.04 0.04 0.04 0.06 0.08 0.09 0.10 0.08 0.05 0.04 0.04 0.05 0.06 0.06 0.07 0.09 0.08 0.06 0.05 0.05 0.07 0.06 0.05 0.05 0.05 0.08
0.00 0.00 0.01 0.02 0.02 0.02 0.04 0.04 0.05 0.04 0.04 0.04 0.03 0.02 0.03 0.03 0.02 0.03 0.04 0.05 0.04 0.03 0.05 0.06 0.05 0.05 0.04 0.03 0.02 0.03 0.04 0.05 0.06 0.06 0.04 0.03 0.04 0.05 0.04 0.03 0.03 0.04 0.06
0.00 0.00 0.01 0.01 0.02 0.03 0.04 0.06 0.06 0.06 0.05 0.05 0.05 0.05 0.04 0.04 0.04 0.03 0.03 0.03 0.03 0.02 0.04 0.05 0.05 0.03 0.04 0.03 0.01 0.02 0.03 0.04 0.04 0.04 0.05 0.03 0.03 0.03 0.03 0.03 0.03 0.03 0.04
0.00 0.01 0.01 0.01 0.01 0.02 0.05 0.06 0.07 0.08 0.06 0.05 0.05 0.06 0.05 0.05 0.05 0.05 0.03 0.02 0.02 0.03 0.04 0.05 0.06 0.05 0.05 0.03 0.02 0.02 0.02 0.02 0.03 0.05 0.06 0.05 0.03 0.02 0.02 0.02 0.03 0.03 0.04
0.01 0.01 0.01 0.01 0.02 0.02 0.03 0.03 0.04 0.06 0.07 0.06 0.04 0.04 0.03 0.03 0.04 0.04 0.03 0.03 0.02 0.02 0.04 0.05 0.07 0.07 0.05 0.02 0.01 0.01 0.03 0.04 0.08 0.15 0.14 0.08 0.04 0.03 0.02 0.03 0.04 0.04 0.05
0.01 0.01 0.01 0.01 0.01 0.01 0.01 0.01 0.02 0.03 0.04 0.04 0.04 0.04 0.03 0.03 0.03 0.03 0.03 0.03 0.02 0.02 0.02 0.05 0.07 0.06 0.05 0.02 0.01 0.01 0.02 0.02 0.05 0.10 0.12 0.08 0.06 0.06 0.04 0.03 0.04 0.05 0.06
0.01 0.00 0.01 0.01 0.01 0.01 0.01 0.01 0.01 0.01 0.02 0.03 0.03 0.04 0.05 0.04 0.03 0.03 0.02 0.02 0.02 0.02 0.02 0.03 0.04 0.05 0.05 0.04 0.01 0.01 0.01 0.01 0.01 0.02 0.03 0.04 0.05 0.06 0.05 0.03 0.03 0.04 0.05
0.00 0.00 0.00 0.00 0.00 0.00 0.00 0.01 0.01 0.00 0.01 0.02 0.03 0.04 0.04 0.05 0.02 0.01 0.02 0.02 0.02 0.02 0.02 0.02 0.02 0.04 0.03 0.03 0.01 0.00 0.01 0.01 0.02 0.03 0.02 0.04 0.05 0.04 0.03 0.04 0.04 0.04 0.06
0.00 0.00 0.00 0.00 0.00 0.00 0.00 0.00 0.00 0.00 0.00 0.01 0.02 0.02 0.02 0.03 0.01 0.00 0.02 0.02 0.02 0.02 0.01 0.01 0.02 0.03 0.02 0.01 0.01 0.00 0.01 0.01 0.01 0.04 0.02 0.01 0.02 0.03 0.02 0.04 0.05 0.05 0.08
0.00 0.00 0.00 0.00 0.00 0.00 0.00 0.00 0.00 0.00 0.01 0.01 0.01 0.01 0.01 0.02 0.02 0.01 0.02 0.03 0.02 0.01 0.01 0.01 0.02 0.02 0.01 0.00 0.00 0.00 0.00 0.01 0.01 0.03 0.03 0.01 0.00 0.01 0.01 0.02 0.03 0.04 0.05
0.00 0.00 0.00 0.00 0.00 0.00 0.00 0.00 0.00 0.00 0.00 0.01 0.01 0.01 0.01 0.01 0.01 0.01 0.02 0.03 0.03 0.02 0.01 0.01 0.01 0.01 0.00 0.00 0.00 0.00 0.00 0.00 0.01 0.01 0.02 0.01 0.00 0.00 0.00 0.01 0.01 0.03 0.03
0.00 0.00 0.00 0.00 0.00 0.00 0.00 0.00 0.00 0.00 0.00 0.00 0.00 0.01 0.01 0.00 0.00 0.01 0.02 0.02 0.03 0.02 0.01 0.01 0.01 0.00 0.00 0.00 0.00 0.00 0.00 0.00 0.00 0.01 0.01 0.01 0.00 0.00 0.00 0.01 0.01 0.02 0.03
0.00 0.00 0.00 0.00 0.00 0.00 0.00 0.00 0.00 0.00 0.00 0.00 0.00 0.01 0.01 0.00 0.00 0.02 0.04 0.03 0.03 0.02 0.00 0.01 0.01 0.00 0.00 0.00 0.00 0.00 0.00 0.00 0.01 0.01 0.01 0.00 0.00 0.00 0.01 0.01 0.01 0.02 0.02
0.00 0.00 0.00 0.00 0.00 0.00 0.00 0.00 0.00 0.00 0.00 0.00 0.00 0.00 0.01 0.00 0.00 0.01 0.01 0.02 0.01 0.01 0.00 0.00 0.00 0.00 0.00 0.00 0.01 0.01 0.01 0.01 0.02 0.02 0.01 0.00 0.00 0.00 0.00 0.01 0.01 0.02 0.02
0.00 0.00 0.00 0.00 0.00 0.00 0.00 0.00 0.00 0.00 0.00 0.00 0.01 0.01 0.01 0.00 0.00 0.01 0.01 0.01 0.00 0.00 0.00 0.00 0.00 0.00 0.00 0.01 0.01 0.02 0.01 0.02 0.02 0.02 0.00 0.00 0.00 0.00 0.00 0.00 0.01 0.02 0.02
0.00 0.00 0.00 0.00 0.00 0.00 0.00 0.00 0.00 0.00 0.00 0.00 0.01 0.01 0.00 0.00 0.00 0.01 0.01 0.01 0.00 0.00 0.00 0.00 0.00 0.00 0.00 0.01 0.02 0.02 0.03 0.03 0.02 0.02 0.01 0.00 0.00 0.00 0.00 0.00 0.01 0.02 0.03
0.00 0.00 0.00 0.00 0.00 0.00 0.00 0.00 0.00 0.00 0.00 0.00 0.00 0.00 0.00 0.00 0.00 0.01 0.00 0.00 0.00 0.00 0.00 0.00 0.00 0.00 0.01 0.01 0.02 0.02 0.03 0.02 0.02 0.02 0.01 0.00 0.00 0.00 0.00 0.00 0.01 0.02 0.03
0.00 0.00 0.00 0.00 0.00 0.00 0.00 0.00 0.00 0.00 0.00 0.00 0.00 0.00 0.00 0.00 0.00 0.00 0.00 0.00 0.00 0.00 0.00 0.00 0.00 0.00 0.01 0.02 0.02 0.02 0.02 0.02 0.02 0.01 0.01 0.01 0.00 0.00 0.00 0.00 0.01 0.02 0.03
0.00 0.00 0.00 0.00 0.00 0.00 0.00 0.00 0.00 0.00 0.00 0.00 0.00 0.00 0.00 0.00 0.00 0.00 0.00 0.00 0.00 0.00 0.00 0.00 0.00 0.00 0.01 0.01 0.02 0.02 0.03 0.03 0.02 0.01 0.01 0.01 0.00 0.00 0.00 0.01 0.01 0.01 0.01
0.00 0.00 0.00 0.00 0.00 0.00 0.00 0.00 0.00 0.00 0.00 0.00 0.00 0.00 0.00 0.00 0.00 0.00 0.00 0.00 0.00 0.00 0.00 0.00 0.00 0.00 0.01 0.01 0.01 0.02 0.02 0.02 0.02 0.02 0.02 0.01 0.01 0.00 0.00 0.01 0.00 0.00 0.00
0.00 0.00 0.00 0.00 0.00 0.00 0.00 0.00 0.00 0.00 0.00 0.00 0.00 0.00 0.00 0.00 0.00 0.00 0.00 0.00 0.00 0.01 0.00 0.00 0.00 0.00 0.00 0.00 0.01 0.01 0.01 0.01 0.01 0.01 0.01 0.02 0.01 0.01 0.00 0.00 0.00 0.00 0.00
MSLP
1015.57 1015.60 1015.59 1015.56 1015.54 1015.56 1015.65 1015.79 1015.99 1016.22 1016.45 1016.67 1016.87 1017.02 1017.13 1017.18 1017.15 1017.02 1016.75 1016.32 1015.70 1014.90 1013.96 1012.94 1011.93 1011.03 1010.33 1009.90 1009.78 1009.97 1010.43 1011.09 1011.89 1012.73 1013.54 1014.28 1014.92 1015.44 1015.86 1016.20 1016.48 1016.73 1016.97
1015.69 1015.76 1015.80 1015.84 1015.91 1016.01 1016.16 1016.36 1016.59 1016.85 1017.10 1017.34 1017.54 1017.70 1017.82 1017.88 1017.86 1017.73 1017.47 1017.06 1016.48 1015.75 1014.91 1014.01 1013.12 1012.34 1011.74 1011.37 1011.27 1011.42 1011.79 1012.33 1012.98 1013.67 1014.35 1014.98 1015.53 1016.01 1016.41 1016.75 1017.03 1017.28 1017.51
1015.86 1015.94 1016.02 1016.12 1016.26 1016.43 1016.64 1016.89 1017.17 1017.44 1017.71 1017.95 1018.16 1018.33 1018.45 1018.51 1018.49 1018.37 1018.14 1017.76 1017.25 1016.62 1015.89 1015.13 1014.40 1013.77 1013.29 1013.00 1012.92 1013.04 1013.32 1013.74 1014.24 1014.77 1015.30 1015.80 1016.27 1016.69 1017.06 1017.39 1017.68 1017.93 1018.15
1016.08 1016.15 1016.25 1016.39 1016.57 1016.80 1017.07 1017.35 1017.65 1017.94 1018.22 1018.46 1018.67 1018.84 1018.97 1019.04 1019.04 1018.94 1018.73 1018.41 1017.98 1017.44 1016.85 1016.24 1015.66 1015.17 1014.81 1014.60 1014.55 1014.64 1014.85 1015.14 1015.49 1015.87 1016.26 1016.65 1017.03 1017.39 1017.73 1018.05 1018.34 1018.58 1018.79
1016.33 1016.38 1016.49 1016.64 1016.86 1017.12 1017.41 1017.72 1018.03 1018.32 1018.60 1018.84 1019.06 1019.24 1019.38 1019.47 1019.50 1019.44 1019.28 1019.02 1018.67 1018.23 1017.76 1017.28 1016.83 1016.47 1016.21 1016.07 1016.04 1016.10 1016.23 1016.42 1016.65 1016.89 1017.15 1017.43 1017.73 1018.03 1018.35 1018.65 1018.93 1019.17 1019.37
1016.63 1016.65 1016.74 1016.89 1017.11 1017.38 1017.68 1017.99 1018.30 1018.58 1018.85 1019.10 1019.32 1019.53 1019.70 1019.84 1019.91 1019.91 1019.82 1019.63 1019.36 1019.01 1018.64 1018.26 1017.92 1017.65 1017.46 1017.36 1017.33 1017.36 1017.43 1017.52 1017.64 1017.77 1017.92 1018.11 1018.33 1018.58 1018.86 1019.14 1019.41 1019.64 1019.83
1016.96 1016.95 1017.02 1017.16 1017.37 1017.63 1017.92 1018.21 1018.49 1018.76 1019.01 1019.26 1019.50 1019.74 1019.96 1020.16 1020.30 1020.38 1020.37 1020.26 1020.07 1019.81 1019.51 1019.21 1018.94 1018.73 1018.57 1018.48 1018.44 1018.43 1018.44 1018.45 1018.47 1018.51 1018.57 1018.67 1018.83 1019.03 1019.27 1019.52 1019.77 1019.99 1020.16
1017.31 1017.28 1017.33 1017.46 1017.65 1017.89 1018.15 1018.40 1018.65 1018.89 1019.12 1019.36 1019.62 1019.89 1020.18 1020.45 1020.68 1020.85 1020.93 1020.92 1020.81 1020.63 1020.40 1020.16 1019.92 1019.73 1019.59 1019.48 1019.41 1019.35 1019.30 1019.25 1019.20 1019.16 1019.15 1019.18 1019.27 1019.41 1019.61 1019.82 1020.04 1020.24 1020.39
1017.66 1017.63 1017.68 1017.79 1017.97 1018.17 1018.39 1018.61 1018.81 1019.01 1019.22 1019.45 1019.71 1020.02 1020.36 1020.71 1021.03 1021.30 1021.48 1021.57 1021.55 1021.44 1021.27 1021.07 1020.86 1020.68 1020.52 1020.39 1020.29 1020.19 1020.09 1019.98 1019.87 1019.77 1019.70 1019.67 1019.70 1019.79 1019.93 1020.10 1020.28 1020.45 1020.59
1017.99 1017.98 1018.04 1018.15 1018.31 1018.49 1018.67 1018.84 1019.00 1019.15 1019.31 1019.52 1019.79 1020.12 1020.50 1020.91 1021.32 1021.68 1021.96 1022.14 1022.20 1022.17 1022.07 1021.90 1021.72 1021.54 1021.37 1021.23 1021.09 1020.96 1020.82 1020.67 1020.52 1020.39 1020.27 1020.20 1020.18 1020.22 1020.31 1020.43 1020.57 1020.70 1020.82
1018.28 1018.30 1018.37 1018.50 1018.65 1018.81 1018.96 1019.09 1019.19 1019.30 1019.42 1019.60 1019.85 1020.18 1020.58 1021.03 1021.49 1021.92 1022.28 1022.54 1022.70 1022.74 1022.70 1022.59 1022.44 1022.28 1022.11 1021.96 1021.81 1021.66 1021.50 1021.34 1021.18 1021.02 1020.89 1020.79 1020.73 1020.73 1020.77 1020.84 1020.94 1021.04 1021.13
1018.48 1018.55 1018.66 1018.80 1018.96 1019.11 1019.24 1019.33 1019.40 1019.46 1019.54 1019.68 1019.89 1020.20 1020.59 1021.05 1021.53 1022.00 1022.41 1022.74 1022.96 1023.08 1023.11 1023.06 1022.96 1022.83 1022.69 1022.56 1022.42 1022.27 1022.12 1021.96 1021.81 1021.65 1021.52 1021.41 1021.34 1021.31 1021.32 1021.36 1021.42 1021.49 1021.56
1018.60 1018.72 1018.87 1019.04 1019.21 1019.36 1019.48 1019.55 1019.59 1019.62 1019.66 1019.76 1019.93 1020.20 1020.55 1020.98 1021.44 1021.92 1022.35 1022.71 1022.99 1023.17 1023.26 1023.28 1023.25 1023.18 1023.09 1022.99 1022.88 1022.76 1022.64 1022.51 1022.37 1022.24 1022.12 1022.03 1021.96 1021.93 1021.92 1021.94 1021.98 1022.03 1022.08
1018.63 1018.80 1018.99 1019.19 1019.37 1019.54 1019.66 1019.73 1019.77 1019.78 1019.80 1019.86 1019.98 1020.19 1020.49 1020.86 1021.28 1021.72 1022.14 1022.51 1022.82 1023.05 1023.20 1023.29 1023.33 1023.32 1023.30 1023.25 1023.19 1023.12 1023.03 1022.94 1022.84 1022.75 1022.66 1022.59 1022.55 1022.53 1022.53 1022.54 1022.57 1022.61 1022.64
1018.60 1018.81 1019.03 1019.26 1019.47 1019.66 1019.80 1019.89 1019.93 1019.95 1019.96 1020.00 1020.09 1020.24 1020.47 1020.76 1021.11 1021.49 1021.87 1022.22 1022.53 1022.80 1023.00 1023.15 1023.26 1023.32 1023.36 1023.37 1023.36 1023.34 1023.30 1023.24 1023.19 1023.13 1023.08 1023.05 1023.04 1023.04 1023.05 1023.08 1023.11 1023.14 1023.16
1018.55 1018.79 1019.04 1019.29 1019.52 1019.73 1019.90 1020.03 1020.10 1020.14 1020.17 1020.20 1020.26 1020.37 1020.53 1020.75 1021.02 1021.32 1021.64 1021.96 1022.26 1022.53 1022.76 1022.96 1023.12 1023.25 1023.35 1023.41 1023.45 1023.46 1023.45 1023.43 1023.40 1023.38 1023.36 1023.36 1023.37 1023.40 1023.43 1023.47 1023.51 1023.54 1023.57
1018.51 1018.77 1019.04 1019.31 1019.57 1019.81 1020.01 1020.17 1020.29 1020.37 1020.43 1020.47 1020.53 1020.60 1020.71 1020.87 1021.06 1021.29 1021.54 1021.81 1022.08 1022.34 1022.59 1022.82 1023.02 1023.18 1023.32 1023.41 1023.48 1023.51 1023.52 1023.51 1023.50 1023.49 1023.49 1023.50 1023.53 1023.56 1023.61 1023.66 1023.70 1023.74 1023.76
1018.52 1018.80 1019.08 1019.36 1019.64 1019.90 1020.13 1020.33 1020.50 1020.62 1020.72 1020.79 1020.85 1020.91 1020.99 1021.09 1021.22 1021.39 1021.58 1021.80 1022.03 1022.28 1022.52 1022.76 1022.97 1023.16 1023.31 1023.42 1023.49 1023.53 1023.53 1023.52 1023.50 1023.48 1023.47 1023.47 1023.49 1023.52 1023.57 1023.61 1023.65 1023.68 1023.71
1018.59 1018.88 1019.17 1019.45 1019.74 1020.01 1020.27 1020.50 1020.70 1020.87 1021.00 1021.10 1021.18 1021.24 1021.30 1021.37 1021.47 1021.58 1021.73 1021.90 1022.10 1022.32 1022.56 1022.78 1023.00 1023.18 1023.33 1023.43 1023.49 1023.51 1023.49 1023.45 1023.41 1023.36 1023.32 1023.30 1023.29 1023.29 1023.31 1023.33 1023.35 1023.37 1023.39
1018.70 1019.00 1019.29 1019.57 1019.85 1020.13 1020.39 1020.63 1020.86 1021.05 1021.21 1021.33 1021.43 1021.51 1021.57 1021.63 1021.69 1021.78 1021.90 1022.04 1022.22 1022.41 1022.62 1022.83 1023.03 1023.19 1023.32 1023.40 1023.44 1023.43 1023.39 1023.32 1023.23 1023.15 1023.07 1023.00 1022.94 1022.90 1022.87 1022.85 1022.84 1022.83 1022.84
1018.81 1019.11 1019.40 1019.68 1019.95 1020.21 1020.46 1020.70 1020.93 1021.12 1021.29 1021.43 1021.54 1021.63 1021.70 1021.76 1021.82 1021.90 1022.00 1022.13 1022.28 1022.45 1022.64 1022.82 1022.99 1023.13 1023.23 1023.29 1023.29 1023.26 1023.19 1023.09 1022.97 1022.85 1022.73 1022.61 1022.50 1022.40 1022.31 1022.23 1022.17 1022.13 1022.11
1018.85 1019.16 1019.45 1019.72 1019.97 1020.21 1020.44 1020.66 1020.87 1021.05 1021.22 1021.35 1021.47 1021.56 1021.64 1021.71 1021.78 1021.86 1021.96 1022.08 1022.22 1022.37 1022.53 1022.68 1022.82 1022.93 1023.00 1023.03 1023.02 1022.97 1022.88 1022.76 1022.63 1022.48 1022.32 1022.16 1022.00 1021.84 1021.68 1021.54 1021.42 1021.33 1021.27
1018.78 1019.09 1019.38 1019.64 1019.88 1020.10 1020.30 1020.49 1020.66 1020.82 1020.97 1021.09 1021.20 1021.30 1021.38 1021.46 1021.55 1021.64 1021.74 1021.86 1021.99 1022.13 1022.26 1022.38 1022.49 1022.57 1022.61 1022.62 1022.60 1022.54 1022.45 1022.33 1022.19 1022.04 1021.86 1021.67 1021.47 1021.25 1021.04 1020.83 1020.65 1020.51 1020.41
1018.54 1018.87 1019.17 1019.42 1019.65 1019.85 1020.02 1020.18 1020.32 1020.45 1020.57 1020.68 1020.78 1020.88 1020.97 1021.06 1021.16 1021.27 1021.38 1021.49 1021.61 1021.73 1021.84 1021.93 1022.00 1022.05 1022.07 1022.06 1022.03 1021.98 1021.90 1021.80 1021.68 1021.53 1021.36 1021.15 1020.92 1020.68 1020.41 1020.15 1019.92 1019.72 1019.57
1018.16 1018.50 1018.80 1019.06 1019.28 1019.46 1019.63 1019.76 1019.88 1019.99 1020.09 1020.18 1020.28 1020.37 1020.47 1020.58 1020.69 1020.80 1020.92 1021.03 1021.14 1021.23 1021.31 1021.37 1021.41 1021.42 1021.42 1021.40 1021.37 1021.32 1021.26 1021.18 1021.09 1020.96 1020.81 1020.61 1020.38 1020.11 1019.81 1019.52 1019.23 1018.99 1018.80
1017.65 1018.00 1018.31 1018.57 1018.80 1018.99 1019.15 1019.28 1019.39 1019.49 1019.59 1019.68 1019.77 1019.87 1019.98 1020.09 1020.21 1020.33 1020.45 1020.55 1020.64 1020.71 1020.76 1020.78 1020.78 1020.76 1020.73 1020.69 1020.65 1020.61 1020.56 1020.51 1020.44 1020.35 1020.21 1020.03 1019.81 1019.53 1019.23 1018.91 1018.59 1018.31 1018.08
Thickness
5734 5732 5730 5727 5725 5723 5722 5721 5721 5721 5722 5723 5724 5725 5726 5726 5726 5726 5726 5728 5730 5733 5734 5736 5738 5740 5742 5744 5747 5749 5751 5753 5755 5756 5758 5759 5760 5762 5763 5764 5765 5766 5766
5734 5731 5728 5726 5724 5722 5721 5720 5719 5718 5718 5719 5720 5721 5722 5723 5724 5724 5723 5724 5726 5728 5730 5732 5733 5736 5738 5740 5743 5745 5747 5750 5752 5754 5755 5757 5758 5759 5761 5761 5762 5763 5764
5733 5730 5728 5725 5723 5722 5720 5719 5717 5717 5716 5716 5716 5717 5718 5719 5720 5721 5721 5722 5723 5724 5726 5727 5729 5731 5733 5736 5738 5741 5744 5746 5748 5750 5752 5754 5755 5757 5758 5759 5759 5760 5761
5731 5729 5726 5725 5723 5721 5719 5717 5715 5713 5712 5711 5711 5712 5714 5715 5717 5718 5719 5720 5720 5721 5722 5723 5725 5727 5729 5731 5734 5737 5739 5742 5745 5747 5748 5750 5752 5754 5755 5755 5756 5757 5758
5731 5728 5726 5725 5723 5720 5718 5716 5713 5712 5709 5708 5708 5709 5710 5711 5713 5714 5716 5716 5717 5718 5718 5719 5721 5723 5725 5727 5729 5732 5735 5738 5740 5743 5745 5746 5748 5749 5751 5751 5752 5754 5755
5729 5727 5725 5724 5722 5719 5716 5714 5712 5711 5709 5708 5708 5706 5706 5708 5709 5710 5712 5713 5714 5715 5716 5716 5718 5719 5720 5722 5724 5727 5730 5733 5736 5738 5740 5742 5744 5745 5747 5747 5749 5750 5751
5728 5726 5725 5723 5721 5718 5715 5714 5711 5709 5707 5708 5704 5700 5702 5705 5706 5706 5708 5710 5711 5712 5713 5714 5715 5715 5716 5717 5720 5723 5726 5729 5732 5735 5737 5738 5739 5741 5742 5743 5745 5745 5746
5726 5726 5724 5722 5720 5717 5715 5713 5711 5708 5707 5708 5703 5698 5693 5694 5699 5703 5705 5706 5707 5708 5710 5710 5711 5711 5712 5713 5715 5718 5722 5725 5729 5731 5732 5733 5735 5736 5738 5739 5740 5740 5741
5725 5724 5724 5722 5720 5718 5714 5713 5711 5709 5704 5706 5706 5701 5693 5688 5692 5696 5700 5702 5703 5704 5706 5707 5707 5708 5708 5709 5711 5713 5717 5721 5724 5726 5727 5728 5730 5731 5733 5733 5734 5736 5736
5724 5723 5723 5722 5721 5719 5716 5714 5713 5711 5707 5703 5705 5706 5704 5700 5693 5689 5693 5698 5700 5701 5702 5703 5703 5704 5704 5705 5706 5709 5712 5715 5718 5720 5721 5723 5724 5726 5727 5728 5729 5730 5731
5723 5723 5722 5722 5721 5719 5717 5715 5713 5712 5709 5706 5704 5703 5703 5703 5702 5694 5688 5691 5694 5697 5699 5699 5700 5700 5700 5701 5702 5704 5707 5709 5712 5714 5716 5718 5719 5720 5721 5722 5724 5725 5725
5723 5722 5722 5721 5720 5719 5717 5715 5714 5711 5710 5708 5706 5704 5702 5700 5699 5697 5691 5689 5689 5692 5695 5696 5696 5696 5697 5697 5698 5700 5702 5704 5706 5708 5710 5711 5713 5715 5716 5717 5717 5718 5719
5721 5721 5721 5720 5719 5718 5717 5715 5714 5712 5710 5708 5706 5705 5705 5704 5703 5701 5695 5691 5690 5690 5692 5692 5693 5693 5694 5694 5694 5696 5697 5699 5700 5702 5704 5705 5707 5708 5709 5710 5711 5711 5712
5722 5722 5721 5719 5718 5717 5716 5714 5713 5711 5710 5708 5707 5705 5704 5703 5703 5701 5697 5692 5687 5687 5687 5687 5690 5690 5690 5690 5691 5692 5692 5694 5695 5696 5698 5699 5700 5701 5702 5703 5703 5704 5704
5724 5722 5720 5718 5717 5716 5715 5713 5711 5710 5708 5707 5706 5705 5703 5702 5702 5701 5699 5696 5689 5682 5680 5684 5685 5687 5687 5687 5687 5687 5688 5689 5690 5691 5692 5693 5693 5694 5695 5696 5696 5697 5697
5723 5722 5720 5718 5717 5715 5713 5712 5710 5709 5707 5705 5704 5703 5701 5700 5699 5698 5697 5696 5694 5688 5681 5682 5683 5684 5684 5684 5684 5684 5684 5684 5685 5686 5687 5687 5688 5688 5689 5689 5689 5690 5690
5722 5721 5720 5718 5716 5714 5712 5710 5708 5707 5705 5703 5702 5700 5697 5697 5695 5694 5693 5692 5690 5687 5680 5679 5681 5681 5681 5680 5679 5680 5680 5680 5681 5682 5682 5682 5682 5682 5683 5683 5683 5683 5684
5721 5720 5719 5717 5715 5712 5710 5708 5706 5705 5703 5700 5699 5697 5694 5694 5691 5690 5689 5687 5686 5685 5680 5675 5676 5676 5676 5676 5676 5676 5676 5676 5677 5677 5677 5677 5677 5677 5677 5677 5676 5677 5677
5719 5719 5717 5714 5712 5710 5708 5706 5704 5703 5701 5699 5697 5694 5692 5690 5687 5686 5685 5683 5682 5682 5679 5675 5672 5673 5673 5673 5672 5671 5672 5672 5673 5673 5672 5672 5672 5672 5671 5671 5670 5670 5670
5717 5716 5714 5712 5709 5707 5705 5703 5702 5700 5698 5697 5695 5692 5690 5687 5684 5683 5682 5679 5678 5676 5675 5672 5669 5669 5668 5669 5668 5666 5665 5667 5668 5669 5668 5667 5667 5666 5666 5665 5664 5663 5663
5715 5713 5711 5708 5706 5704 5701 5699 5698 5697 5695 5693 5691 5689 5686 5684 5682 5680 5678 5675 5674 5671 5669 5667 5665 5664 5663 5662 5661 5662 5660 5661 5662 5663 5662 5662 5661 5660 5659 5658 5657 5656 5655
5711 5709 5707 5704 5702 5700 5697 5696 5694 5693 5692 5689 5687 5685 5683 5680 5678 5676 5675 5673 5671 5667 5665 5662 5660 5659 5659 5659 5658 5658 5655 5654 5653 5656 5656 5655 5655 5654 5652 5651 5650 5649 5648
5706 5704 5702 5700 5697 5695 5694 5692 5691 5689 5688 5686 5684 5682 5680 5677 5674 5672 5670 5669 5666 5665 5664 5660 5657 5656 5655 5655 5654 5652 5650 5648 5647 5649 5648 5646 5648 5646 5646 5645 5644 5642 5640
5702 5700 5698 5696 5693 5691 5690 5688 5687 5685 5683 5682 5681 5679 5676 5672 5670 5668 5665 5663 5660 5659 5659 5657 5655 5653 5652 5651 5649 5647 5645 5644 5644 5642 5641 5638 5639 5638 5638 5637 5636 5634 5632
5698 5696 5695 5693 5689 5687 5685 5684 5682 5679 5678 5677 5676 5675 5672 5668 5667 5664 5661 5657 5655 5653 5652 5651 5649 5647 5646 5644 5642 5639 5636 5633 5631 5632 5632 5629 5629 5629 5629 5628 5627 5625 5623
5695 5693 5691 5689 5687 5684 5682 5679 5677 5674 5672 5671 5671 5670 5668 5665 5662 5659 5655 5652 5648 5647 5646 5644 5642 5640 5638 5636 5634 5631 5627 5623 5621 5621 5623 5621 5619 5618 5617 5619 5617 5615 5612